FW4407 Weather Reports


Display with metric or nautical units.
time (UTC)temp
F
wind
direction
speed
MPH
gust
MPH
rain 1hr
in
rain 24hr
in
rain mn
in
humidity
%
barometer
mb
20260906090019 95 4 1.0 8.0 0.00 0.00 0.00 29 1018.8
20260906085027 94 0.0 0.0 0.00 0.00 0.00 27 1018.8
20260906084019 93 229 1.0 5.0 0.00 0.00 0.00 29 1018.8
20260906083027 93 0.0 0.0 0.00 0.00 0.00 29 1018.8
20260906082039 93 128 0.0 2.0 0.00 0.00 0.00 30 1018.7
20260906081027 93 0.0 0.0 0.00 0.00 0.00 30 1018.9
20260906080039 93 250 0.0 2.0 0.00 0.00 0.00 29 1019.0
20260906075047 93 270 0.0 2.0 0.00 0.00 0.00 29 1018.8
20260906074019 93 0.0 0.0 0.00 0.00 0.00 30 1018.9
20260906073027 92 222 0.0 5.0 0.00 0.00 0.00 30 1018.7
20260906072019 91 259 0.0 2.0 0.00 0.00 0.00 29 1018.8
20260906071027 89 0.0 0.0 0.00 0.00 0.00 32 1018.6
20260906070019 88 0.0 0.0 0.00 0.00 0.00 32 1018.4
20260906065027 86 0.0 0.0 0.00 0.00 0.00 33 1018.3
20260906064019 84 0.0 0.0 0.00 0.00 0.00 35 1018.4
20260906063027 83 0.0 0.0 0.00 0.00 0.00 36 1018.2
20260906062039 82 0.0 0.0 0.00 0.00 0.00 37 1018.0
20260906061047 81 0.0 0.0 0.00 0.00 0.00 38 1018.0
20260906060019 81 0.0 0.0 0.00 0.00 0.00 40 1018.0
20260906055047 81 0.0 0.0 0.00 0.00 0.00 41 1018.0
20260906054018 80 0.0 0.0 0.00 0.00 0.00 41 1017.8
20260906053027 78 0.0 0.0 0.00 0.00 0.00 42 1017.7
20260906052018 77 0.0 0.0 0.00 0.00 0.00 44 1017.9
20260906051046 76 0.0 0.0 0.00 0.00 0.00 46 1017.7
20260906050019 74 0.0 0.0 0.00 0.00 0.00 46 1017.9
20260906045026 73 0.0 0.0 0.00 0.00 0.00 46 1017.7
20260906044019 71 0.0 0.0 0.00 0.00 0.00 48 1017.5
20260906043027 71 129 1.0 5.0 0.00 0.00 0.00 50 1017.4
20260906042019 72 0.0 0.0 0.00 0.00 0.00 50 1017.4
20260906041027 73 7 1.0 5.0 0.00 0.00 0.00 49 1017.2
20260906040019 73 42 0.0 2.0 0.00 0.00 0.00 48 1017.3
20260906035026 74 0.0 0.0 0.00 0.00 0.00 46 1017.3
20260906034059 74 0.0 0.0 0.00 0.00 0.00 46 1017.3
20260906033026 74 0.0 0.0 0.00 0.00 0.00 45 1017.3
20260906032039 73 0.0 0.0 0.00 0.00 0.00 45 1017.2
20260906031049 73 133 1.0 5.0 0.00 0.00 0.00 46 1017.1
20260906030018 73 144 0.0 5.0 0.00 0.00 0.00 47 1017.1
20260906025027 73 21 1.0 5.0 0.00 0.00 0.00 47 1016.9
20260906024018 73 0.0 0.0 0.00 0.00 0.00 48 1016.9
20260906023027 73 0.0 0.0 0.00 0.00 0.00 47 1016.6
20260906022019 73 0.0 0.0 0.00 0.00 0.00 47 1016.8
20260906021027 73 0.0 0.0 0.00 0.00 0.00 47 1016.9
20260906020019 73 0.0 0.0 0.00 0.00 0.00 48 1016.7
20260906015026 73 0.0 0.0 0.00 0.00 0.00 47 1016.8
20260906014018 73 0.0 0.0 0.00 0.00 0.00 47 1016.9
20260906013026 73 0.0 0.0 0.00 0.00 0.00 46 1016.9
20260906012018 73 0.0 0.0 0.00 0.00 0.00 47 1017.1
20260906011026 73 0.0 0.0 0.00 0.00 0.00 48 1017.2
20260906010039 74 0.0 0.0 0.00 0.00 0.00 47 1017.0
20260906005026 74 0.0 0.0 0.00 0.00 0.00 46 1017.0
20260906004019 74 0.0 0.0 0.00 0.00 0.00 45 1017.0
20260906003046 75 0.0 0.0 0.00 0.00 0.00 44 1017.0
20260906002019 75 0.0 0.0 0.00 0.00 0.00 44 1017.0
20260906001026 76 0.0 0.0 0.00 0.00 0.00 43 1017.0
20260906000018 76 0.0 0.0 0.00 0.00 0.00 43 1017.1
20260905235026 76 0.0 0.0 0.00 0.00 0.00 41 1017.2
20260905234019 75 0.0 0.0 0.00 0.00 0.00 42 1017.3
20260905233027 75 0.0 0.0 0.00 0.00 0.00 43 1017.3
20260905232018 76 0.0 0.0 0.00 0.00 0.00 44 1017.3
20260905231026 75 0.0 0.0 0.00 0.00 0.00 43 1017.4
20260905230018 76 0.0 0.0 0.00 0.00 0.00 43 1017.6
20260905225026 76 0.0 0.0 0.00 0.00 0.00 43 1017.7
20260905224018 76 0.0 0.0 0.00 0.00 0.00 44 1017.7
20260905223026 76 0.0 0.0 0.00 0.00 0.00 41 1017.7
20260905222019 76 0.0 0.0 0.00 0.00 0.00 41 1017.7
20260905221027 76 0.0 0.0 0.00 0.00 0.00 42 1017.7
20260905220019 77 0.0 0.0 0.00 0.00 0.00 42 1017.6
20260905215027 78 341 0.0 2.0 0.00 0.00 0.00 41 1017.7
20260905214019 78 0.0 0.0 0.00 0.00 0.00 39 1017.7
20260905213027 78 0.0 0.0 0.00 0.00 0.00 38 1017.6
20260905212019 78 0.0 0.0 0.00 0.00 0.00 39 1017.7
20260905211027 78 128 0.0 2.0 0.00 0.00 0.00 39 1017.8
20260905210040 78 126 1.0 5.0 0.00 0.00 0.00 40 1017.8
20260905205027 78 125 0.0 5.0 0.00 0.00 0.00 40 1017.9
20260905204019 78 0.0 0.0 0.00 0.00 0.00 40 1017.7
20260905203027 78 0.0 0.0 0.00 0.00 0.00 40 1017.6
20260905202020 78 0.0 0.0 0.00 0.00 0.00 40 1017.6
20260905201027 79 0.0 0.0 0.00 0.00 0.00 40 1017.7
20260905200039 79 0.0 0.0 0.00 0.00 0.00 39 1017.7
20260905195027 79 0.0 0.0 0.00 0.00 0.00 38 1017.8
20260905194019 80 0.0 0.0 0.00 0.00 0.00 39 1017.8
20260905193027 80 0.0 0.0 0.00 0.00 0.00 39 1017.9
20260905192019 80 0.0 0.0 0.00 0.00 0.00 38 1017.6
20260905191027 80 136 0.0 5.0 0.00 0.00 0.00 38 1017.7
20260905190019 80 0.0 0.0 0.00 0.00 0.00 39 1018.0
20260905185027 80 0.0 0.0 0.00 0.00 0.00 40 1017.8
20260905184039 81 0.0 0.0 0.00 0.00 0.00 39 1017.7
20260905183027 81 0.0 0.0 0.00 0.00 0.00 39 1017.6
20260905182019 82 20 0.0 2.0 0.00 0.00 0.00 38 1017.6
20260905181027 82 124 2.0 8.0 0.00 0.00 0.00 37 1017.3
20260905180019 82 131 2.0 10.0 0.00 0.00 0.00 37 1017.3
20260905175027 82 140 2.0 10.0 0.00 0.00 0.00 38 1017.3
20260905174019 83 128 3.0 13.0 0.00 0.00 0.00 37 1017.3
20260905173047 83 121 5.0 13.0 0.00 0.00 0.00 37 1017.2
20260905172059 84 124 2.0 8.0 0.00 0.00 0.00 37 1016.9
20260905171027 84 113 3.0 8.0 0.00 0.00 0.00 36 1016.9
20260905170019 84 124 4.0 10.0 0.00 0.00 0.00 37 1017.1
20260905165027 85 121 3.0 10.0 0.00 0.00 0.00 37 1017.2
20260905164019 86 122 3.0 10.0 0.00 0.00 0.00 37 1017.2
20260905163047 86 126 4.0 10.0 0.00 0.00 0.00 36 1017.1
20260905162019 87 135 1.0 5.0 0.00 0.00 0.00 35 1017.0
20260905161027 87 98 4.0 10.0 0.00 0.00 0.00 33 1017.1
20260905160019 87 7 3.0 10.0 0.00 0.00 0.00 32 1017.0
20260905155027 88 15 9.0 17.0 0.00 0.00 0.00 32 1017.3
20260905154039 88 21 6.0 15.0 0.00 0.00 0.00 32 1017.2
20260905153027 89 18 5.0 15.0 0.00 0.00 0.00 31 1017.2
20260905152019 89 13 6.0 15.0 0.00 0.00 0.00 32 1017.2
20260905151027 89 22 5.0 15.0 0.00 0.00 0.00 31 1017.2
20260905150019 90 89 5.0 13.0 0.00 0.00 0.00 31 1017.3
20260905145027 90 44 4.0 13.0 0.00 0.00 0.00 31 1017.1
20260905144019 90 9 5.0 13.0 0.00 0.00 0.00 31 1017.3
20260905143027 90 326 3.0 10.0 0.00 0.00 0.00 30 1017.0
20260905142019 90 65 7.0 20.0 0.00 0.00 0.00 30 1017.0
20260905141027 90 107 6.0 15.0 0.00 0.00 0.00 32 1017.0
20260905140039 90 67 6.0 13.0 0.00 0.00 0.00 31 1017.0
20260905135027 90 7 4.0 10.0 0.00 0.00 0.00 32 1017.2
20260905134039 90 28 5.0 13.0 0.00 0.00 0.00 33 1017.1
20260905133027 90 19 6.0 17.0 0.00 0.00 0.00 33 1017.4
20260905132019 90 8 5.0 17.0 0.00 0.00 0.00 33 1017.3
20260905131047 90 125 4.0 15.0 0.00 0.00 0.00 32 1017.3
20260905130019 90 26 5.0 13.0 0.00 0.00 0.00 33 1017.4
20260905125027 90 101 5.0 15.0 0.00 0.00 0.00 32 1017.4
20260905124019 90 33 7.0 15.0 0.00 0.00 0.00 33 1017.4
20260905123027 90 7 4.0 13.0 0.00 0.00 0.00 33 1017.3
20260905122019 89 123 8.0 15.0 0.00 0.00 0.00 32 1017.4
20260905121027 89 53 5.0 20.0 0.00 0.00 0.00 32 1017.5
20260905120019 89 78 5.0 15.0 0.00 0.00 0.00 34 1017.5
20260905115027 89 115 8.0 23.0 0.00 0.00 0.00 34 1017.7
20260905114019 89 112 7.0 20.0 0.00 0.00 0.00 34 1017.7
20260905113027 89 112 5.0 15.0 0.00 0.00 0.00 34 1017.7
20260905112019 89 114 5.0 15.0 0.00 0.00 0.00 35 1017.8
20260905111027 89 108 5.0 13.0 0.00 0.00 0.00 35 1017.8
20260905110019 89 127 8.0 17.0 0.00 0.00 0.00 35 1017.7
20260905105027 88 107 5.0 10.0 0.00 0.00 0.00 34 1017.8
20260905104039 88 134 8.0 20.0 0.00 0.00 0.00 35 1017.8
20260905103027 88 116 6.0 15.0 0.00 0.00 0.00 35 1017.8
20260905102019 88 56 6.0 20.0 0.00 0.00 0.00 35 1017.8
20260905101047 88 127 7.0 30.0 0.00 0.00 0.00 34 1017.8
20260905100019 88 121 6.0 15.0 0.00 0.00 0.00 34 1017.8
20260905095027 87 52 7.0 20.0 0.00 0.00 0.00 34 1017.9
20260905094019 87 16 7.0 20.0 0.00 0.00 0.00 35 1017.9
20260905093026 87 109 8.0 20.0 0.00 0.00 0.00 34 1018.0
20260905092019 87 8 8.0 17.0 0.00 0.00 0.00 36 1018.1
20260905091027 87 42 6.0 15.0 0.00 0.00 0.00 35 1018.0